Volver al catálogo

STARLINK-37312

ActivoComunicacionesSSO
NORAD 68676·PAYLOAD·🇺🇸 United States

Lanzado Apr 11, 2026 desde Vandenberg Space Force Base

Loading…

Próximos Pases (próximas 24 horas)

TLE

ActualizadoSource: CelesTrak SupGP

Época: Sep 15, 2026, 03:36 UTC

1 68676C 26077Q   26258.15048611  .00008284  00000+0  25707-3 0  2587
2 68676  97.2847 128.1593 0001874  94.2739 337.4307 15.33445021    11

Sigue STARLINK-37312 en tiempo real con AllMySat

Download on the App Store